Location: Fernhill
(41.0167°S, 175.6333°E)
Time: 00:18:22
(UTC+00:00)

Cosmos 1975 Rocket - Pass Details

Date: 08 November 2025
Orbit: 597 x 626 km, 82.5° (Epoch: 04 December)

Event Time Altitude Azimuth Distance (km) Brightness Sun altitude
Rises 07:30:43 0° 5° (N) 2,885 6.2 -5.0°
Reaches altitude 10° 07:32:57 10° 9° (N) 1,993 5.3 -5.4°
Maximum altitude 07:37:16 55° 86° (E) 763 3.2 -6.1°
Drops below altitude 10° 07:41:41 10° 163° (SSE) 2,034 5.9 -6.8°
Sets 07:43:58 0° 167° (SSE) 2,952 6.8 -7.2°
